Location: Ferques
(50.8300°N, 1.7599°E)
Time: 17:52:26
(UTC+00:00)

Cosmos 1842 - Pass Details

Date: 19 May 2025
Orbit: 439 x 450 km, 82.5° (Epoch: 22 June)

Event Time Altitude Azimuth Distance (km) Brightness Sun altitude
Exits shadow 23:40:03 50° 238° (WSW) 587 3.2 -19.2°
Maximum altitude 23:40:37 59° 282° (WNW) 530 3.2 -19.2°
Drops below altitude 10° 23:44:05 10° 3° (N) 1,601 6.9 -19.2°
Sets 23:46:12 0° 8° (N) 2,481 8.3 -19.2°
